Simultaneous Nadir Overpasses (SNOs) Predictions

Prediction of SNOs between LANDSAT-8 and METOP-B Satellite Orbit:

Table of predicted SNOs for the next 14.0 days since TLE Epoch: 10/5/2024
Index Date (LANDSAT-8) Time (LANDSAT-8) Lat,Lon (LANDSAT-8) SZA (LANDSAT-8 ) Date (METOP-B) Time (METOP-B) Lat,Lon (METOP-B) SZA (METOP-B ) Distance(km) Time Diff (sec)
1 10/06/2024 02:59:08 81.41,-179.78 89.47 10/06/2024 02:58:38 81.40,-179.62 89.47 2.63 30
2 10/06/2024 03:48:35 -81.40, -12.25 90.54 10/06/2024 03:49:19 -81.40, -12.43 90.54 3.00 44
3 10/08/2024 22:33:21 81.39,-113.67 90.51 10/08/2024 22:32:53 81.40,-113.53 90.52 2.62 28
4 10/08/2024 23:22:47 -81.41, 54.26 89.44 10/08/2024 23:23:33 -81.40, 54.09 89.44 2.86 46
5 10/11/2024 18:07:31 81.40, -47.07 91.61 10/11/2024 18:07:07 81.40, -47.02 91.60 0.96 24
6 10/11/2024 18:56:57 -81.41, 120.87 88.34 10/11/2024 18:57:46 -81.41, 121.02 88.30 2.41 49
7 10/14/2024 13:41:38 81.41, 19.64 92.70 10/14/2024 13:41:20 81.40, 19.51 92.68 2.31 18
8 10/14/2024 14:31:05 -81.41,-172.79 87.30 10/14/2024 14:32:00 -81.41,-172.83 87.28 0.64 55
9 10/17/2024 09:15:42 81.41, 86.07 93.74 10/17/2024 09:15:31 81.40, 86.05 93.73 0.47 11



Historial Predications of SNOs between LANDSAT-8 and METOP-B
